Total_Precipitation_Accumulation
1.19 1.14 1.08 1.17 1.16 1.15 1.22 1.20 1.05 1.07 1.05 0.93 0.90 0.92 0.96 0.96 1.14 1.29 1.67 2.34 3.09 3.78 3.92 3.61 3.12 2.81 2.68 2.60 2.51 2.46 2.38 2.39 2.55 2.75 2.68 2.78 3.01 3.02 3.02 3.36 3.59 3.87 3.94
1.01 1.09 1.13 1.21 1.13 1.16 1.25 1.15 1.10 1.12 1.14 1.04 0.94 0.96 0.94 0.98 1.08 1.23 1.42 1.83 2.32 3.03 3.75 3.88 3.49 3.11 2.86 2.78 2.78 2.82 2.61 2.46 2.47 2.66 2.70 2.61 2.74 2.76 2.69 2.91 3.25 3.55 3.99
1.01 1.09 1.15 1.17 1.16 1.16 1.18 1.23 1.25 1.18 1.09 1.04 1.03 1.00 0.95 0.97 1.14 1.27 1.35 1.57 1.69 1.90 2.69 3.52 3.78 3.59 3.35 3.31 3.24 3.10 2.91 2.74 2.61 2.64 2.70 2.60 2.66 2.56 2.57 2.69 2.79 2.93 3.48
1.03 1.26 1.30 1.16 1.21 1.30 1.33 1.40 1.37 1.28 1.20 1.21 1.22 1.16 1.10 1.13 1.26 1.36 1.31 1.33 1.43 1.39 1.72 2.31 2.88 3.27 3.61 3.72 3.68 3.47 3.25 3.06 2.73 2.63 2.63 2.59 2.65 2.47 2.50 2.57 2.58 2.72 2.97
1.17 1.42 1.53 1.36 1.31 1.47 1.45 1.35 1.40 1.47 1.46 1.52 1.38 1.37 1.34 1.37 1.36 1.28 1.27 1.34 1.43 1.46 1.56 1.55 1.83 2.26 2.96 3.50 3.80 3.98 3.62 3.32 2.94 2.70 2.63 2.48 2.54 2.48 2.44 2.42 2.41 2.58 2.64
1.41 1.61 1.79 1.72 1.61 1.74 1.77 1.65 1.77 1.85 1.79 1.86 1.68 1.55 1.49 1.48 1.41 1.41 1.38 1.46 1.59 1.51 1.55 1.55 1.56 1.43 1.86 2.61 3.30 3.79 3.82 3.61 3.28 2.88 2.75 2.47 2.56 2.49 2.30 2.21 2.28 2.44 2.54
1.87 2.00 2.00 2.22 2.24 2.20 2.24 2.18 2.37 2.44 2.17 2.02 2.39 2.30 1.86 1.53 1.40 1.47 1.56 1.63 1.76 1.80 1.78 1.78 1.76 1.52 1.44 1.77 2.44 3.40 3.66 3.57 3.34 3.06 2.97 2.74 2.56 2.39 2.26 2.25 2.26 2.22 2.38
2.24 2.15 2.27 2.50 2.50 2.58 2.65 2.51 2.71 2.87 2.54 2.26 2.76 3.25 2.81 2.29 1.63 1.37 1.48 1.64 1.85 1.90 1.85 1.73 1.77 1.74 1.67 1.71 1.85 2.56 3.18 3.54 3.49 3.32 3.18 3.12 2.65 2.40 2.27 2.24 2.24 2.19 2.17
2.61 2.54 2.52 2.66 2.67 2.72 2.88 2.90 2.88 3.07 3.05 2.71 2.68 3.28 3.28 2.89 2.40 1.79 1.62 1.68 1.89 1.99 2.03 1.98 1.83 1.86 1.79 1.87 1.96 1.86 2.16 2.85 3.40 3.41 3.30 3.24 2.98 2.64 2.35 2.30 2.28 2.18 2.03
2.72 2.68 2.70 2.80 2.80 2.76 2.82 2.86 2.86 3.19 3.47 3.29 2.99 2.73 2.68 2.70 2.77 2.41 1.97 1.79 1.90 1.98 2.10 2.01 2.04 2.13 2.10 2.08 2.06 1.80 1.67 1.92 2.55 3.08 3.22 3.29 3.17 2.93 2.60 2.49 2.50 2.31 2.18
2.52 2.40 2.52 2.71 2.73 2.72 2.71 2.85 2.97 3.27 3.36 3.32 3.25 3.10 2.90 2.70 2.31 2.40 2.36 2.12 2.04 1.93 2.02 2.18 2.27 2.32 2.26 2.41 2.53 2.00 1.63 1.59 1.97 2.53 3.02 3.26 3.37 3.35 3.10 2.80 2.63 2.58 2.53
2.45 2.26 2.32 2.42 2.52 2.59 2.55 2.58 2.77 2.96 3.23 3.39 3.33 3.17 3.16 3.10 2.87 2.65 2.32 2.20 2.33 2.18 2.03 2.02 2.11 2.20 2.34 2.47 2.39 2.21 1.71 1.55 1.69 1.87 2.24 2.79 3.23 3.51 3.45 3.28 3.08 2.90 2.86
2.41 2.38 2.27 2.28 2.33 2.38 2.48 2.67 2.68 2.75 2.95 3.18 3.22 3.17 3.16 3.01 2.94 2.91 2.65 2.30 2.22 2.13 2.04 1.99 1.97 2.04 2.11 2.21 2.24 2.18 1.78 1.67 1.58 1.55 1.60 1.81 2.34 2.89 3.30 3.52 3.49 3.29 3.27
1.98 1.98 2.02 2.11 2.21 2.27 2.35 2.51 2.60 2.62 2.67 2.74 2.77 2.98 3.10 3.00 2.80 2.72 2.71 2.77 2.50 2.26 2.07 1.96 1.91 1.90 1.95 1.95 2.08 2.10 1.67 1.61 1.54 1.45 1.39 1.32 1.50 1.85 2.38 2.81 2.96 3.07 3.33
1.59 1.60 1.64 1.79 1.97 2.08 2.13 2.25 2.41 2.40 2.48 2.50 2.58 2.67 2.70 2.78 2.67 2.49 2.47 2.59 2.72 2.50 2.30 2.09 1.89 1.71 1.76 1.73 1.82 1.59 1.52 1.57 1.55 1.44 1.31 1.22 1.19 1.32 1.63 2.03 2.24 2.20 2.26
1.55 1.59 1.60 1.60 1.71 1.79 1.89 2.05 2.16 2.23 2.29 2.26 2.26 2.35 2.41 2.48 2.49 2.44 2.43 2.48 2.52 2.48 2.35 2.10 1.80 1.55 1.61 1.66 1.83 1.56 1.60 1.80 1.70 1.54 1.32 1.24 1.20 1.19 1.30 1.44 1.55 1.52 1.50
1.61 1.60 1.61 1.63 1.63 1.70 1.76 1.85 1.95 2.08 2.07 2.07 1.95 1.99 2.13 2.24 2.45 2.49 2.46 2.44 2.44 2.37 2.22 2.08 1.83 1.62 1.58 1.68 1.76 1.63 1.65 1.70 1.61 1.56 1.41 1.32 1.21 1.25 1.32 1.36 1.40 1.32 1.22
1.45 1.50 1.59 1.53 1.51 1.56 1.64 1.76 1.84 1.86 1.90 1.84 1.74 1.77 1.89 1.98 2.14 2.27 2.39 2.30 2.33 2.32 2.28 2.22 1.99 1.79 1.70 1.70 1.77 1.73 1.60 1.58 1.59 1.66 1.49 1.40 1.30 1.22 1.30 1.29 1.38 1.43 1.33
1.43 1.50 1.60 1.66 1.55 1.45 1.53 1.61 1.69 1.70 1.67 1.57 1.54 1.59 1.66 1.75 1.86 1.98 2.09 2.18 2.22 2.21 2.30 2.26 2.06 1.87 1.71 1.66 1.71 1.65 1.59 1.66 1.57 1.68 1.63 1.49 1.43 1.32 1.31 1.30 1.29 1.39 1.41
1.30 1.33 1.44 1.52 1.54 1.47 1.41 1.39 1.39 1.56 1.56 1.46 1.34 1.32 1.35 1.38 1.51 1.65 1.77 1.93 2.09 2.23 2.30 2.32 2.16 1.92 1.73 1.69 1.77 1.81 1.78 1.68 1.67 1.60 1.64 1.60 1.59 1.53 1.42 1.37 1.26 1.26 1.35
1.12 1.18 1.33 1.49 1.54 1.50 1.50 1.48 1.37 1.41 1.47 1.49 1.42 1.30 1.19 1.20 1.33 1.43 1.49 1.74 1.95 2.11 2.23 2.28 2.18 2.00 1.84 1.76 1.73 1.73 1.79 1.87 1.87 1.72 1.67 1.57 1.53 1.39 1.27 1.28 1.25 1.18 1.17
1.02 1.02 1.11 1.25 1.39 1.37 1.57 1.62 1.50 1.36 1.36 1.37 1.37 1.34 1.34 1.31 1.19 1.15 1.23 1.40 1.64 1.83 1.99 2.10 2.12 1.93 1.74 1.72 1.79 1.82 1.81 1.86 1.90 1.77 1.72 1.77 1.71 1.57 1.40 1.26 1.31 1.22 1.16
1.00 1.00 1.08 1.19 1.32 1.52 1.63 1.46 1.52 1.45 1.38 1.38 1.33 1.32 1.34 1.31 1.39 1.23 1.20 1.20 1.22 1.39 1.65 1.86 1.88 1.78 1.82 1.76 1.76 1.73 1.70 1.68 1.69 1.73 1.76 1.78 1.75 1.64 1.46 1.38 1.46 1.37 1.29
1.00 1.02 1.09 1.17 1.25 1.47 1.58 1.40 1.59 1.60 1.55 1.49 1.43 1.45 1.49 1.50 1.43 1.55 1.51 1.38 1.26 1.22 1.34 1.29 1.35 1.65 1.80 1.86 1.88 1.89 1.91 1.81 1.72 1.73 1.67 1.70 1.59 1.54 1.45 1.35 1.42 1.33 1.26
1.02 1.03 1.02 1.03 1.06 1.18 1.34 1.28 1.42 1.52 1.61 1.59 1.46 1.42 1.46 1.46 1.71 1.82 1.64 1.54 1.42 1.32 1.52 1.55 1.54 1.63 1.74 1.77 1.76 1.82 1.87 1.83 1.74 1.67 1.58 1.49 1.41 1.49 1.58 1.49 1.42 1.47 1.39
1.06 0.99 0.96 0.92 0.93 0.97 1.20 1.11 1.23 1.28 1.43 1.57 1.54 1.47 1.64 1.56 1.62 1.62 1.51 1.65 1.56 1.40 1.33 1.31 1.31 1.36 1.41 1.50 1.59 1.56 1.69 1.74 1.65 1.68 1.52 1.46 1.44 1.52 1.58 1.50 1.35 1.31 1.35